NVS-01 (IRNSS-1J)

Last updated on Sun Jun 21 2026 00:03:09 GMT+0000 (Coordinated Universal Time)

1 56759U 23076A 26171.45373823 -.00000339 00000+0 00000+0 0 9996 2 56759 2.1573 244.1904 0003064 17.9405 299.3162 1.00277443 11142
UTC large
Height (km)
Speed (km/s)
/
Latitude / Longitude
Inclination (degrees)
Orbital Period (minutes)
Azimuth
Elevation
Range (km)
Doppler Factor

Next 0 passes for location: London (51.5072 / 0.1276)

No passes found over London.
NVS-01 (IRNSS-1J)